Погода в Демяновска-Долине

Словакия     48°58′05″N   19°34′51″E
темп.,
°C
ветер,
м/с
пор.,
м/с
влажн.,
%
обл.,
%
осадки,
мм/ч
давл.,
гПа
погр.,
м
17 мая, пн
пн1723:00+4ю22975 0.0 100926
02:00+5ююв219619 0.0 100922
05:00+4юв229692 0.0 100723
08:00+9юв238599 0.0 1005255
11:00+8ююв2395100 0.8 1005191
14:00+8ююв1296100 3.1 1005170
17:00+7с1199100 5.8 100483
20:00+5зсз2399100 11.4 1007227
18 мая, вт
вт1823:00+5ссз2399100 3.4 1008133
02:00+5сз23100100 4.8 1008188
05:00+5сз2699100 2.1 1009561
08:00+5сз2499100 2.4 1011267
11:00+6сз2491100 0.3 1012520
14:00+7сз248485 0.5 1012692
17:00+10сз256655 0.2 10111188
20:00+6ссз119010 0.3 101214
19 мая, ср
ср1923:00+4сз119481 0.0 101415
02:00+5сз119365 0.0 101532
05:00+3сз119753 0.0 101514
08:00+8с1176100 0.1 1013420
11:00+9зсз1177100 0.9 1013540
14:00+7зсз1294100 4.7 1014648
17:00+5ссз2398100 5.9 1014604
20:00+4ссв2399100 10.1 1015223
20 мая, чт
чт2023:00+3ссв129942 0.2 101647
02:00+2с119846 0.2 101654
05:00+3ссз119690 0.0 101655
08:00+6ссз24797 0.1 1015843
11:00+7ссз346792 0.1 10161079
14:00+10ссз455889 0.3 10151581
17:00+9с356571 0.1 10151176
20:00+5ссз2389100 0.3 101781
21 мая, пт
пт2123:00+2с229822 0.0 102037
02:00+3ссз1397100 0.0 1020102
05:00+4ссз239697 0.2 1019112
08:00+6ссз238651 0.6 1020713
11:00+7ссз226882 0.2 10191098
14:00+12с22406 0.3 10161809
17:00+12ссз213830 0.0 10151962
20:00+7юв1169100 0.0 101612